GW1757 Weather Reports


time (UTC)temp
C
wind
direction
speed
KPH
gust
KPH
rain 1hr
cm
rain 24hr
cm
rain mn
cm
humidity
%
barometer
mb
20260504151001 26 195 1.6 6.4 0.00 5.69 5.69 85 1009.9
20260504150455 26 166 1.6 6.4 0.00 5.69 5.69 85 1009.9
20260504141113 25 197 3.2 6.4 0.00 5.79 5.69 86 1009.8
20260504140343 25 200 3.2 11.3 0.00 5.79 5.69 86 1009.8
20260504130739 26 247 1.6 6.4 0.00 5.94 5.69 88 1009.3
20260504130452 26 226 1.6 4.8 0.00 5.94 5.69 88 1009.4
20260504120119 26 212 3.2 6.4 0.00 5.94 5.69 87 1009.1
20260504110540 26 9 1.6 4.8 0.00 5.97 5.69 87 1008.8
20260504100535 27 25 3.2 4.8 0.00 5.97 5.69 86 1008.1
20260504081956 28 38 11.3 19.3 0.00 5.97 5.69 80 1007.4
20260504081444 28 28 11.3 19.3 0.00 5.97 5.69 78 1007.3
20260504080941 28 56 9.7 19.3 0.00 5.97 5.69 79 1007.3
20260504080434 28 54 11.3 19.3 0.00 5.97 5.69 78 1007.2
20260504050601 28 28 9.7 20.9 0.00 5.97 5.69 84 1008.8
20260504045812 28 335 12.9 20.9 0.00 5.97 5.69 84 1008.9
20260504045042 28 39 12.9 20.9 0.00 5.97 5.69 84 1009.0
20260504044536 28 33 11.3 20.9 0.00 5.97 5.69 83 1009.1
20260504044030 28 313 11.3 24.1 0.00 5.97 5.69 84 1009.1
20260504043524 28 45 12.9 25.7 0.00 5.97 5.69 84 1009.3
20260504043018 28 359 12.9 25.7 0.00 5.97 5.69 84 1009.3
20260504042512 28 15 11.3 24.1 0.00 5.97 5.69 85 1009.3
20260504042006 28 15 12.9 24.1 0.00 5.97 5.69 85 1009.4
20260504041500 28 43 14.5 24.1 0.00 5.97 5.69 85 1009.7
20260504040955 28 359 12.9 25.7 0.00 5.97 5.69 85 1009.7
20260504040448 28 4 14.5 25.7 0.00 5.97 5.69 85 1009.8
20260504035942 28 25 14.5 25.7 0.00 5.97 5.69 85 1009.9
20260504035436 28 77 14.5 25.7 0.00 5.97 5.69 85 1010.0
20260504034933 28 41 12.9 24.1 0.00 5.97 5.69 85 1010.0
20260504034656 28 52 11.3 24.1 0.00 5.97 5.69 85 1010.0
20260504033920 28 17 12.9 25.7 0.00 5.97 5.69 86 1010.1
20260504033420 28 15 14.5 25.7 0.00 5.97 5.69 86 1010.1
20260504032921 28 50 12.9 24.1 0.00 5.97 5.69 86 1010.3
20260504032424 28 359 12.9 25.7 0.00 5.97 5.69 87 1010.2
20260504031920 28 359 14.5 25.7 0.00 5.97 5.69 88 1010.2
20260504031641 28 29 14.5 25.7 0.00 5.97 5.69 87 1010.2
20260504030920 28 4 14.5 25.7 0.00 5.97 5.69 88 1010.2
20260504030420 28 12 11.3 22.5 0.00 5.97 5.69 87 1010.2
20260504025920 28 22 11.3 25.7 0.00 5.97 5.69 87 1010.3
20260504025647 28 41 12.9 25.7 0.00 5.97 5.69 88 1010.2
20260504025140 28 336 11.3 20.9 0.00 5.97 5.69 88 1010.2
20260504024420 28 354 11.3 20.9 0.00 5.97 5.69 88 1010.3
20260504023920 28 8 12.9 22.5 0.00 5.97 5.69 88 1010.4
20260504023420 28 321 12.9 24.1 0.00 5.97 5.69 87 1010.4
20260504022920 28 17 12.9 24.1 0.00 5.97 5.69 87 1010.3
20260504022420 28 10 12.9 22.5 0.00 5.97 5.69 87 1010.3
20260504021920 28 359 11.3 24.1 0.00 5.97 5.69 88 1010.3
20260504021420 27 348 12.9 24.1 0.00 5.97 5.69 88 1010.3
20260504021153 27 33 11.3 22.5 0.00 5.97 5.69 89 1010.3
20260504020421 27 28 11.3 22.5 0.00 5.97 5.69 89 1010.5
20260504015920 27 74 12.9 24.1 0.00 5.97 5.69 89 1010.6
20260504015639 27 31 9.7 24.1 0.00 5.97 5.69 89 1010.7
20260504014920 27 14 8.0 22.5 0.00 5.97 5.69 90 1010.6
20260504014420 27 38 6.4 22.5 0.00 5.97 5.69 91 1010.7
20260504013920 27 67 6.4 19.3 0.00 5.97 5.69 91 1010.7
20260504013421 27 32 6.4 16.1 0.00 5.97 5.69 91 1010.8
20260504012922 26 359 6.4 16.1 0.00 5.97 5.69 91 1010.8
20260504012420 26 31 6.4 16.1 0.00 5.97 5.69 91 1010.8
20260504011920 26 25 6.4 14.5 0.00 5.97 5.69 91 1010.8
20260504011420 26 98 4.8 14.5 0.00 5.97 5.69 91 1010.7
20260504010920 26 17 4.8 14.5 0.00 5.97 5.69 91 1010.7
20260504010645 26 31 4.8 14.5 0.00 5.97 5.69 90 1010.6
20260504005926 26 30 4.8 14.5 0.00 5.97 5.69 91 1010.6
20260504005419 26 359 3.2 11.3 0.00 5.97 5.69 91 1010.6
20260504004914 26 35 3.2 12.9 0.00 5.97 5.69 91 1010.5
20260504004859 26 27 3.2 12.9 0.00 5.97 5.69 91 1010.5
20260504003900 26 81 3.2 9.7 0.00 5.97 5.69 91 1010.4
20260504003842 26 95 4.8 14.5 0.00 5.97 5.69 92 1010.3
20260504002849 26 66 4.8 14.5 0.00 5.97 5.69 92 1010.4
20260504002342 26 97 4.8 16.1 0.00 5.97 5.69 92 1010.4
20260504001838 26 131 8.0 17.7 0.00 5.99 5.69 93 1010.3
20260504001331 26 149 9.7 20.9 0.00 5.99 5.69 93 1010.3
20260504001047 26 100 8.0 20.9 0.03 5.99 5.69 94 1010.2
20260504000319 26 77 4.8 14.5 0.15 5.99 5.69 94 1010.1
20260503235813 26 102 3.2 11.3 0.18 5.99 5.69 95 1010.2
20260503235307 26 160 4.8 16.1 0.23 6.07 5.69 95 1010.1
20260503235027 26 127 6.4 16.1 0.25 6.35 5.69 94 1010.0
20260503234254 26 102 4.8 14.5 0.38 6.35 5.69 95 1009.8
20260503233749 26 64 3.2 14.5 1.24 6.35 5.69 95 1009.8
20260503233243 26 79 1.6 6.4 1.45 6.35 5.69 95 1009.7
20260503232737 25 359 1.6 6.4 1.45 6.38 5.69 95 1009.7
20260503232231 25 359 3.2 8.0 1.45 6.43 5.69 95 1009.7
20260503231727 25 115 6.4 16.1 1.47 6.50 5.69 94 1009.6
20260503231219 25 134 8.0 16.1 1.47 6.71 5.69 94 1009.6
20260503230713 25 114 6.4 16.1 1.45 6.96 5.66 94 1009.7
20260503230207 25 96 8.0 20.9 1.37 6.88 5.51 94 1009.5
20260503225701 25 95 9.7 20.9 1.37 6.91 5.51 94 1009.3
20260503225155 25 62 11.3 25.7 1.37 6.83 5.46 94 1009.3
20260503224649 25 359 17.7 40.2 1.63 6.81 5.41 94 1009.3
20260503224143 25 137 12.9 40.2 2.08 6.63 5.26 94 1009.2
20260503223638 25 112 3.2 30.6 1.45 5.69 4.42 95 1009.4
20260503223357 25 359 0.0 11.3 2.03 5.61 4.22 95 1009.1
20260503222624 25 359 0.0 0.0 2.16 5.61 4.22 95 1009.0
20260503222120 25 127 1.6 6.4 2.26 5.61 4.22 95 1008.9
20260503221837 25 176 4.8 11.3 2.39 5.59 4.19 95 1008.7
20260503221108 25 149 8.0 17.7 3.10 5.59 4.19 94 1008.5
20260503220602 25 137 8.0 17.7 4.11 5.59 4.19 94 1008.4
20260503220055 25 359 6.4 16.1 4.11 5.54 4.14 94 1008.4
20260503215550 25 136 9.7 32.2 4.11 5.51 4.14 94 1008.5
20260503215043 25 359 14.5 32.2 4.01 5.41 4.04 94 1008.4
20260503214537 25 120 9.7 29.0 3.68 5.08 3.71 94 1008.4
20260503214033 25 123 9.7 20.9 3.02 4.42 3.05 94 1008.5
20260503213525 25 138 11.3 20.9 2.72 4.11 2.79 94 1008.3
20260503213020 25 133 9.7 17.7 2.18 3.58 2.18 94 1008.2
20260503212513 25 118 8.0 17.7 2.01 3.40 2.03 94 1008.3
20260503212007 25 146 6.4 19.3 1.93 3.33 1.96 94 1008.3
20260503211501 25 140 4.8 19.3 1.57 2.97 1.68 94 1008.2
20260503210955 25 109 1.6 12.9 0.89 2.31 0.89 94 1008.3
20260503210449 25 56 3.2 12.9 0.08 1.47 0.08 94 1008.2
20260503205942 25 354 0.0 9.7 0.03 1.42 0.03 94 1008.2
20260503205437 25 238 0.0 0.0 0.00 1.40 0.00 94 1008.1
20260503204938 25 359 0.0 0.0 0.00 1.40 0.00 94 1008.1
20260503204438 25 238 0.0 0.0 0.00 1.40 0.00 93 1007.9
20260503203939 25 231 0.0 0.0 0.00 1.40 0.00 93 1007.9
20260503203438 25 228 0.0 0.0 0.00 1.40 0.00 93 1007.9
20260503202937 25 231 0.0 0.0 0.00 1.40 0.00 93 1007.9
20260503202438 25 229 0.0 0.0 0.00 1.40 0.00 93 1007.8
20260503201937 25 233 0.0 0.0 0.00 1.40 0.00 93 1007.8
20260503201438 25 233 0.0 0.0 0.00 1.40 0.00 93 1007.8
20260503200948 25 190 0.0 0.0 0.00 1.40 0.00 93 1007.8
20260503200437 25 190 0.0 0.0 0.00 1.40 0.00 93 1007.8
20260503195937 25 190 0.0 0.0 0.00 1.40 0.00 93 1007.8
20260503195437 25 193 0.0 0.0 0.00 1.40 0.00 93 1007.7
20260503194937 25 191 0.0 0.0 0.00 1.40 0.00 93 1007.7
20260503194700 25 190 0.0 0.0 0.00 1.40 0.00 93 1007.7
20260503193935 25 190 0.0 0.0 0.00 1.40 0.00 93 1007.7
20260503193436 25 210 0.0 0.0 0.00 1.40 0.00 93 1007.6
20260503192929 25 172 0.0 0.0 0.00 1.40 0.00 93 1007.6
20260503192423 25 176 0.0 0.0 0.00 1.40 0.00 93 1007.6
20260503191921 25 193 0.0 0.0 0.00 1.40 0.00 93 1007.7
20260503191421 25 192 0.0 0.0 0.00 1.40 0.00 94 1007.7
20260503190921 25 359 0.0 0.0 0.00 1.40 0.00 94 1007.6
20260503190421 25 194 0.0 0.0 0.00 1.40 0.00 94 1007.7
20260503185921 25 195 0.0 0.0 0.00 1.40 0.00 93 1007.7
20260503185649 25 172 0.0 0.0 0.00 1.40 0.00 93 1007.6
20260503185410 25 141 0.0 0.0 0.00 1.40 0.00 93 1007.6
20260503184458 25 209 0.0 0.0 0.00 1.40 0.00 93 1007.7
20260503184421 25 183 0.0 0.0 0.00 1.40 0.00 93 1007.6
20260503183409 25 199 0.0 1.6 0.00 1.40 0.00 93 1007.8
20260503182642 25 359 0.0 0.0 0.00 1.40 0.00 93 1007.8
20260503181921 26 113 1.6 6.4 0.00 1.40 0.00 93 1007.8
20260503181421 26 116 3.2 6.4 0.00 1.40 0.00 93 1007.8
20260503180921 25 104 4.8 9.7 0.00 1.40 0.00 93 1007.7
20260503180422 25 104 3.2 9.7 0.00 1.40 0.00 93 1007.8
20260503175919 25 102 1.6 6.4 0.00 1.40 0.00 93 1007.8
20260503175419 25 100 0.0 3.2 0.00 1.40 0.00 93 1007.9
20260503174918 25 125 0.0 3.2 0.00 1.40 0.00 93 1007.9
20260503174417 25 137 3.2 6.4 0.00 1.40 0.00 93 1007.9
20260503173917 25 104 4.8 11.3 0.00 1.40 0.00 93 1008.0
20260503173416 25 103 3.2 11.3 0.00 1.40 0.00 93 1008.0
20260503172918 25 94 3.2 9.7 0.00 1.40 0.00 93 1008.1
20260503172417 25 92 1.6 9.7 0.00 1.40 0.00 93 1008.1
20260503171917 25 89 0.0 0.0 0.00 1.40 0.00 94 1008.3
20260503171634 25 114 0.0 0.0 0.00 1.40 0.00 94 1008.4
20260503170913 25 116 0.0 0.0 0.00 1.40 0.00 94 1008.4
20260503170413 25 359 0.0 0.0 0.00 1.40 0.00 94 1008.3